Location: Newark
(31.5350°N, 35.0986°E)
Time: 00:36:38
(UTC+00:00)

Transit 4A - Pass Details

Date: 19 October 2019
Orbit: 868 x 976 km, 66.8° (Epoch: 13 November)

Event Time Altitude Azimuth Distance (km) Brightness Sun altitude
Rises 02:03:34 0° 203° (SSW) 3,658 - -22.4°
Exits shadow 02:05:22 - 203° (SSW) 2,993 10.3 -22.0°
Reaches altitude 10° 02:06:08 10° 203° (SSW) 2,712 10.1 -21.8°
Maximum altitude 02:12:30 88° 118° (ESE) 972 7.9 -20.5°
Drops below altitude 10° 02:18:49 10° 26° (NNE) 2,685 10.6 -19.1°
Sets 02:21:20 0° 26° (NNE) 3,620 11.3 -18.6°
